This is the latest recevied weather packets stored in our database for station/object JF7BTK-10. If no packets are shown the sender has not sent any weather packets the latest 10 day(s).
| Time | Temp. | Humidity | Pressure | Rain* | Wind** | Luminosity | Snow |
|---|---|---|---|---|---|---|---|
| 1777648354 | 12.22° C | 99% | 982.8 hPa | 2.03 mm | - | - | - |
| 1777648054 | 12.22° C | 99% | 982.9 hPa | 2.03 mm | - | - | - |
| 1777647754 | 12.22° C | 99% | 982.8 hPa | 2.29 mm | - | - | - |
| 1777647533 | 12.22° C | 99% | 983.1 hPa | 2.03 mm | - | - | - |
| 1777647455 | 12.22° C | 99% | 983.2 hPa | 2.03 mm | - | - | - |
| 1777647152 | 11.67° C | 99% | 983.3 hPa | 2.03 mm | - | - | - |
| 1777646851 | 11.67° C | 99% | 983.1 hPa | 1.78 mm | - | - | - |
| 1777646631 | 11.67° C | 99% | 983.5 hPa | 1.78 mm | - | - | - |
| 1777646550 | 11.67° C | 99% | 983.3 hPa | 1.78 mm | - | - | - |
| 1777646252 | 11.67° C | 99% | 983.3 hPa | 1.78 mm | - | - | - |
| 1777645952 | 12.22° C | 99% | 983.2 hPa | 1.02 mm | - | - | - |
| 1777645732 | 12.22° C | 99% | 983.3 hPa | 1.02 mm | - | - | - |
| 1777645651 | 12.22° C | 99% | 983.2 hPa | 1.02 mm | - | - | - |
| 1777645350 | 12.22° C | 99% | 983.3 hPa | 1.02 mm | - | - | - |
| 1777645053 | 12.22° C | 99% | 983.2 hPa | 1.02 mm | - | - | - |
| 1777644830 | 12.22° C | 99% | 983.2 hPa | 0.76 mm | - | - | - |
| 1777644751 | 12.22° C | 99% | 983.2 hPa | 0.76 mm | - | - | - |
| 1777644451 | 12.22° C | 99% | 983.2 hPa | 0.76 mm | - | - | - |
| 1777644150 | 12.22° C | 99% | 983.3 hPa | 0.51 mm | - | - | - |
| 1777643930 | 12.22° C | 99% | 983.2 hPa | 0.51 mm | - | - | - |
| 1777643853 | 12.22° C | 99% | 983.3 hPa | 0.51 mm | - | - | - |
| 1777643551 | 12.22° C | 99% | 983.3 hPa | 0.25 mm | - | - | - |
| 1777643250 | 12.22° C | 99% | 983.5 hPa | 0.25 mm | - | - | - |
| 1777643031 | 12.22° C | 99% | 983.4 hPa | 0 mm | - | - | - |
| 1777642952 | 12.22° C | 99% | 983.4 hPa | 0 mm | - | - | - |
* Rain latest hour (hover to see other rain measurements)
** Current wind speed in m/s (hover to see current wind gust speed)